Regional Weather Roundup
Issued by NWS Cleveland, OH

Home | Current Version | Previous Version | Graphics & Text | Print | Product List | Glossary On
Versions: 1 2 3 4 5 6 7 8 9 10 11 12 13 14 15 16 17 18 19 20 21 22 23 24 25 26 27 28 29 30 31 32 33 34 35 36 37 38 39 40 41 42 43 44 45 46 47 48 49 50
000
ASUS41 KCLE 311302
RWRCLE
OHIO REGIONAL WEATHER ROUNDUP
NATIONAL WEATHER SERVICE CLEVELAND, OH
900 AM EDT MON AUG 31 2015

NOTE: "FAIR" INDICATES FEW OR NO CLOUDS BELOW 12,000 FEET WITH NO
SIGNIFICANT WEATHER AND/OR OBSTRUCTIONS TO VISIBILITY.

OHZ001>008-015>018-024>027-034-035-043-044-311400-
   NORTHWEST OHIO

CITY           SKY/WX    TMP DP  RH WIND       PRES   REMARKS
DEFIANCE       FOG       67  66  97 SW3       30.10R VSB<1/4
FINDLAY        SUNNY     71  67  87 VRB5      30.10R FOG
TOLEDO EXPRESS SUNNY     69  67  93 W3        30.09R FOG
TOLEDO EXEC    SUNNY     70  66  87 SW3       30.09S FOG
LIMA           SUNNY     70  66  87 SW5       30.12R
$$

OHZ009>014-019>023-028>033-038-089-311400-
   NORTHEAST OHIO

CITY           SKY/WX    TMP DP  RH WIND       PRES   REMARKS
CLE-HOPKINS    MOSUNNY   71  65  81 SW6       30.12R
CLE-LAKEFRONT  SUNNY     74  65  73 SW7       30.08R
CUY CO. ARPT   MOSUNNY   75  68  78 W9        30.19R
LORAIN-ELYRIA  SUNNY     69  65  86 W3        30.11R
ASHTABULA      SUNNY     70  67  90 CALM      30.11R
AKRON-CANTON   MOSUNNY   72  65  78 W6        30.12R
WOOSTER        SUNNY     71  66  84 W3        30.13R
MANSFIELD      SUNNY     72  67  84 W3        30.13R
YOUNGSTOWN     MOSUNNY   71  66  84 SW7       30.11S
$$

OHZ042-051>053-060>062-070>072-077>081-311400-
  SOUTHWEST OHIO

CITY           SKY/WX    TMP DP  RH WIND       PRES   REMARKS
CINC-COVINGTON PTSUNNY   70  67  90 SW5       30.14R
CINC-LUNKEN    PTSUNNY   70  68  93 CALM      30.14R
HAMILTON       MOSUNNY   72  68  87 CALM      30.14R
DAYTON         MOSUNNY   72  69  90 SW6       30.14R
WRIGHT-PAT AFB SUNNY     71  68  90 SE2       30.13R
DAYTON GENERAL SUNNY     70  67  90 SW5       30.13R
WILMINGTON     SUNNY     71  66  84 W6        30.13S
$$

OHZ036-037-039>041-045>050-054>059-063>069-073>076-082>088-311400-
  CENTRAL AND SOUTHEAST OHIO

CITY           SKY/WX    TMP DP  RH WIND       PRES   REMARKS
COLUMBUS       MOSUNNY   70  67  90 CALM      30.12R
OSU AIRPORT    SUNNY     71  67  87 W3        30.12S
BOLTON FIELD   SUNNY     68  66  94 W5        30.13R
RICKENBACK AFB SUNNY     69  66  89 SW3       30.12R
NEWARK         SUNNY     71  67  87 CALM      30.12R
MARION         SUNNY     69  66  90 SW3       30.12R FOG
LANCASTER      SUNNY     73  67  81 W5        30.13R
ZANESVILLE     SUNNY     70  65  84 CALM      30.13R
NEW PHILLY     SUNNY     68  66  93 SE3       30.12S
$$



USA.gov is the U.S. government's official web portal to all federal, state and local government web resources and services.